Regional Weather Roundup
Issued by NWS Spokane, WA

Home | Current Version | Previous Version | Text Only | Print | Product List | Glossary On
Versions: 1 2 3 4 5 6 7 8 9 10 11 12 13 14 15 16 17 18 19 20 21 22 23 24 25 26 27 28 29 30 31 32 33 34 35 36 37 38 39 40 41 42 43 44 45 46 47 48 49 50
000
NZUS01 KOTX 210325
RWROTX

Eastern Washington/Northern Idaho Roundup
National Weather Service, Spokane WA
800 PM PDT FRI OCT 20 2017

Note: "fair" indicated few or no clouds below 12,000 feet with no
significant weather and/or obstructions to visibility.

...Northeast Washington and Northern Idaho Panhandle...

CITY           SKY/WX    TMP DP  RH WIND       PRES   REMARKS
Spokane Intl   PTCLDY    44  36  73 SW13      29.78R
Spokane Downto CLOUDY    48  36  63 SW10G18   29.79R
Coeur d Alene  CLOUDY    47  36  65 SW13      29.79R
Deer Park      CLOUDY    47  35  63 SW13      29.77R
Sandpoint      CLOUDY    41  41 100 CALM      29.76R

...Southeast Washington and southern Idaho Panhandle...

CITY           SKY/WX    TMP DP  RH WIND       PRES   REMARKS
Walla Walla    MOCLDY    50  37  61 SW18G25   29.92R
Pullman/Moscow PTCLDY    45  34  65 W23G29    29.86R
Lewiston       MOCLDY    49  35  58 W6        29.86R
Lowell           N/A     41  40  96 CALM      29.92R
Grangeville    MOCLDY    41  34  75 SW17      29.87R

...Columbia Basin...

CITY           SKY/WX    TMP DP  RH WIND       PRES   REMARKS
Ephrata        CLEAR     48  27  44 W12       29.78R
Moses Lake     CLEAR     50  31  48 SW14      29.79R
Pasco          PTCLDY    50  37  61 SW22G31   29.88R
Richland       PTCLDY    50  38  62 SW15      29.88R
Hermiston      PTCLDY    50  37  61 W16G23    29.93R
Pendleton      MOCLDY    47  34  60 W12       29.93R

...East Slopes Cascades...

CITY           SKY/WX    TMP DP  RH WIND       PRES   REMARKS
The Dalles     PTCLDY    47  41  80 NW10      29.99R
Yakima         PTCLDY    51  32  48 SW7       29.86R
Ellensburg     CLEAR     44  34  67 NW16      29.85R
Stampede Pass  CLOUDY    33  32  96 VRB6      29.86R WCI  28
Wenatchee      PTCLDY    48  31  51 NW8       29.79R
Omak           PTCLDY    47  35  63 S5        29.72R
Chelan           N/A     52  29  40 SW10        N/A
Sunnyside      PTCLDY    46  32  58 NW6       29.89R

...Southern British Columbia...

CITY           SKY/WX    TMP DP  RH WIND       PRES   REMARKS
Penticton      PTCLDY    48  30  49 N2        29.69R
Castlegar      CLOUDY    46  37  71 S9        29.73S
Cranbrook      PTCLDY    39  28  65 S8        29.66R
Osoyoos          N/A     52  30  43 SE5         N/A
Creston          N/A     41  37  87 NE2         N/A

...Western Montana...

CITY           SKY/WX    TMP DP  RH WIND       PRES   REMARKS
Kalispell      PTCLDY    38  32  79 SW6       29.72R
Libby            N/A     41  36  81 CALM      29.73R
Missoula       MOCLDY    38  35  89 CALM      29.79R

...Neighboring Cities...

CITY           SKY/WX    TMP DP  RH WIND       PRES   REMARKS
Seattle        PTCLDY    48  44  86 SW16G26   29.91R
Portland       MOCLDY    50  44  80 SW13      30.00R
Boise          MOCLDY    46  32  58 W5        29.95R
Great Falls    CLEAR     39  28  64 SW15      29.57S
Calgary        LGT RAIN  37  32  81 NW22G28   29.56R FOG



USA.gov is the U.S. government's official web portal to all federal, state and local government web resources and services.